Погода в Омутинском

Россия / Тюменская область     56°28′32″N   67°39′52″E
темп.,
°C
ветер,
м/с
пор.,
м/с
влажн.,
%
обл.,
%
осадки,
мм/ч
давл.,
гПа
погр.,
м
25 февраля, чт
чт2523:00−20ссв71394100 0.7 1012686
02:00−21ссв61194100 0.2 1013738
05:00−23с61195100 0.4 1015586
08:00−27с61193100 0.1 1018383
11:00−27ссз699397 0.1 1020345
14:00−24ссз599373 0.0 1022413
17:00−24сз489486 0.0 1024397
20:00−27сз3698100 0.0 1026124
26 февраля, пт
пт2623:00−29зсз339997 0.0 102723
02:00−30зсз239987 0.0 102820
05:00−30з239955 0.0 103020
08:00−31зюз23990 0.0 103019
11:00−25юз249323 0.0 1031233
14:00−20юз348999 0.0 1030408
17:00−21ююз3496100 0.0 103179
20:00−26ююз349760 0.0 103142
27 февраля, сб
сб2723:00−28ююз349637 0.0 103044
02:00−30ю34950 0.0 103051
05:00−31ю34973 0.0 103064
08:00−32ююв479733 0.0 1028120
11:00−26ююв589335 0.0 1027258
14:00−22ююв599215 0.0 1025333
17:00−21юв5109229 0.0 1023327
20:00−21юв61196100 0.0 1018311
28 февраля, вс
вс2823:00−20вюв61197100 0.2 1015337
02:00−17вюв61295100 0.5 1012422
05:00−14вюв61294100 1.3 1009473
08:00−14в61193100 0.3 1007411
11:00−12в61093100 0.5 1006476
14:00−10всв61093100 0.5 1005554
17:00−10всв71194100 1.3 1005513
20:00−13св71194100 0.7 1005403
1 марта, пн
пн123:00−14св61094100 1.4 1006377
02:00−16ссв5995100 0.3 1006351
05:00−17с489599 0.6 1008308
08:00−18с489693 0.1 1010317
11:00−16с469396 0.3 1011396
14:00−15ссз4692100 0.1 1013466
17:00−16ссз4693100 0.2 1014434
20:00−20сз369897 0.1 1017137